Regional Weather Roundup
Issued by NWS

Home | Current Version | Previous Version | Graphics & Text | Print | Product List | Glossary On
Versions: 1 2 3 4 5 6 7 8 9 10 11 12 13 14 15 16 17 18 19 20 21 22 23 24 25 26 27 28 29 30 31 32 33 34 35 36 37 38 39 40 41 42 43 44 45 46 47 48 49 50
000
ASUS43 KLSX 151957
RWRMO

WEATHER SUMMARY FOR MISSOURI
NATIONAL WEATHER SERVICE SPRINGFIELD MO
200 PM CST FRI DEC 15 2017

NOTE: "FAIR" INDICATES FEW OR NO CLOUDS BELOW 12,000 FEET WITH NO
       SIGNIFICANT WEATHER AND/OR OBSTRUCTIONS TO VISIBILITY.
       CURRENT SKY AND/OR WEATHER CONDITIONS ARE NOT AVAILABLE FOR
       CHILLICOTHE AND FARMINGTON.

MOZ001>031-035>038-043-044-053-054-152100-
...NORTHERN AND WESTERN MISSOURI...

CITY           SKY/WX    TMP DP  RH WIND       PRES   REMARKS
KANSAS CTY INT CLOUDY    45  21  38 SW14      30.03F
LEE`S SUMMIT   SUNNY     45  21  38 SW14      30.06F
ST JOSEPH      SUNNY     46  23  40 SW17      30.01F
CHILLICOTHE      N/A     45  20  36 W12G20    30.04F

$$
MOZ066>068-077>081-088>096-101>105-152100-
...SOUTHWEST MISSOURI...

CITY           SKY/WX    TMP DP  RH WIND       PRES   REMARKS
SPRINGFIELD    PTSUNNY   42  28  57 NW10G21   30.10F
JOPLIN         SUNNY     46  25  43 W17       30.14F
BRANSON        MOSUNNY   45  27  49 W7G16     30.12F

$$
MOZ032>034-039>042-045>050-055>058-069>072-152100-
...CENTRAL MISSOURI...

CITY           SKY/WX    TMP DP  RH WIND       PRES   REMARKS
COLUMBIA       NOT AVBL
JEFFERSON CITY SUNNY     43  22  43 W12G22    30.08F
ROLLA          CLOUDY    40  25  55 W12       30.08F
SEDALIA        MOSUNNY   45  25  45 W14       30.08F
WARRENSBURG    SUNNY     43  23  45 SW13      30.08S

$$
MOZ051-052-059>065-152100-
...EAST CENTRAL MISSOURI...

CITY           SKY/WX    TMP DP  RH WIND       PRES   REMARKS
ST LOUIS INTL  MOSUNNY   44  20  38 NW15G21   30.06F

$$
MOZ072>076-082>087-097>100-106>115-152100-
...SOUTH CENTRAL AND SOUTHEAST MISSOURI...

CITY           SKY/WX    TMP DP  RH WIND       PRES   REMARKS
CAPE GIRARDEAU MOSUNNY   45  26  47 SW9       30.09F
POPLAR BLUFF   PTSUNNY   47  28  47 S10       30.10F
WEST PLAINS    MOSUNNY   47  26  44 NW9G18    30.09F

$$



USA.gov is the U.S. government's official web portal to all federal, state and local government web resources and services.